Time,TemperatureF,DewpointF,PressureIn,WindDirection,WindDirectionDegrees,WindSpeedMPH,WindSpeedGustMPH,Humidity,HourlyPrecipIn,Conditions,Clouds,dailyrainin,SoftwareType,DateUTC
2013-04-11 00:13:00,59.0,56.0,-100.00,WNW,303,6.0,12.0,91,0.03,,,0.03,,2013-04-11 05:13:00,
2013-04-11 00:22:00,59.0,56.0,-100.00,WNW,303,6.0,12.0,91,0.03,,,0.03,,2013-04-11 05:22:00,
2013-04-11 00:32:00,59.0,56.0,-100.00,WNW,303,6.0,12.0,91,0.03,,,0.03,,2013-04-11 05:32:00,
2013-04-11 00:42:00,59.0,56.0,-100.00,WNW,303,6.0,12.0,91,0.03,,,0.03,,2013-04-11 05:42:00,
2013-04-11 01:12:00,53.0,51.0,-100.00,NW,321,6.0,13.0,94,0.02,,,0.05,,2013-04-11 06:12:00,
2013-04-11 01:22:00,53.0,51.0,-100.00,NW,321,6.0,13.0,94,0.02,,,0.05,,2013-04-11 06:22:00,
2013-04-11 01:32:00,53.0,51.0,-100.00,NW,321,6.0,13.0,94,0.02,,,0.05,,2013-04-11 06:32:00,
2013-04-11 01:42:00,53.0,51.0,-100.00,NW,321,6.0,13.0,94,0.02,,,0.05,,2013-04-11 06:42:00,
2013-04-11 02:12:00,51.0,50.0,-100.00,North,354,3.0,6.0,96,0.44,,,0.49,,2013-04-11 07:12:00,
2013-04-11 02:22:00,51.0,50.0,-100.00,North,354,3.0,6.0,96,0.44,,,0.49,,2013-04-11 07:22:00,
2013-04-11 02:32:00,51.0,50.0,-100.00,North,354,3.0,6.0,96,0.44,,,0.49,,2013-04-11 07:32:00,
2013-04-11 02:42:00,51.0,50.0,-100.00,North,354,3.0,6.0,96,0.44,,,0.49,,2013-04-11 07:42:00,
2013-04-11 03:12:00,51.0,50.0,-100.00,NNW,346,5.0,9.0,95,0.08,,,0.57,,2013-04-11 08:12:00,
2013-04-11 03:22:00,51.0,50.0,-100.00,NNW,346,5.0,9.0,95,0.08,,,0.57,,2013-04-11 08:22:00,
2013-04-11 03:32:00,51.0,50.0,-100.00,NNW,346,5.0,9.0,95,0.08,,,0.57,,2013-04-11 08:32:00,
2013-04-11 03:42:00,51.0,50.0,-100.00,NNW,346,5.0,9.0,95,0.08,,,0.57,,2013-04-11 08:42:00,
2013-04-11 04:02:00,49.0,48.0,-100.00,NNW,337,6.0,10.0,96,0.04,,,0.61,,2013-04-11 09:02:00,
2013-04-11 04:12:00,49.0,48.0,-100.00,NNW,337,6.0,10.0,96,0.04,,,0.61,,2013-04-11 09:12:00,
2013-04-11 04:22:00,49.0,48.0,-100.00,NNW,337,6.0,10.0,96,0.04,,,0.61,,2013-04-11 09:22:00,
2013-04-11 04:33:00,49.0,48.0,-100.00,NNW,337,6.0,10.0,96,0.04,,,0.61,,2013-04-11 09:33:00,
2013-04-11 04:43:00,49.0,48.0,-100.00,NNW,337,6.0,10.0,96,0.04,,,0.61,,2013-04-11 09:43:00,
2013-04-11 05:12:00,48.0,47.0,-100.00,NW,319,7.0,12.0,95,0.02,,,0.63,,2013-04-11 10:12:00,
2013-04-11 05:23:00,48.0,47.0,-100.00,NW,319,7.0,12.0,95,0.02,,,0.63,,2013-04-11 10:23:00,
2013-04-11 05:32:00,48.0,47.0,-100.00,NW,319,7.0,12.0,95,0.02,,,0.63,,2013-04-11 10:32:00,
2013-04-11 05:42:00,48.0,47.0,-100.00,NW,319,7.0,12.0,95,0.02,,,0.63,,2013-04-11 10:42:00,
2013-04-11 06:12:00,48.0,47.0,-100.00,NNW,343,6.0,16.0,95,0.00,,,0.63,,2013-04-11 11:12:00,
2013-04-11 06:23:00,48.0,47.0,-100.00,NNW,343,6.0,16.0,95,0.00,,,0.63,,2013-04-11 11:23:00,
2013-04-11 06:32:00,48.0,47.0,-100.00,NNW,343,6.0,16.0,95,0.00,,,0.63,,2013-04-11 11:32:00,
2013-04-11 06:42:00,48.0,47.0,-100.00,NNW,343,6.0,16.0,95,0.00,,,0.63,,2013-04-11 11:42:00,
2013-04-11 07:12:00,47.0,46.0,-100.00,NNW,328,8.0,14.0,95,0.04,,,-99.99,,2013-04-11 12:12:00,
2013-04-11 07:22:00,47.0,46.0,-100.00,NNW,328,8.0,14.0,95,0.04,,,-99.99,,2013-04-11 12:22:00,
2013-04-11 07:32:00,47.0,46.0,-100.00,NNW,328,8.0,14.0,95,0.04,,,-99.99,,2013-04-11 12:32:00,
2013-04-11 07:42:00,47.0,46.0,-100.00,NNW,328,8.0,14.0,95,0.04,,,-99.99,,2013-04-11 12:42:00,
2013-04-11 08:12:00,46.0,45.0,-100.00,NW,304,8.0,17.0,96,0.41,,,-99.99,,2013-04-11 13:12:00,
2013-04-11 08:23:00,46.0,45.0,-100.00,NW,304,8.0,17.0,96,0.41,,,-99.99,,2013-04-11 13:23:00,
2013-04-11 08:32:00,46.0,45.0,-100.00,NW,304,8.0,17.0,96,0.41,,,-99.99,,2013-04-11 13:32:00,
2013-04-11 08:43:00,46.0,45.0,-100.00,NW,304,8.0,17.0,96,0.41,,,-99.99,,2013-04-11 13:43:00,
2013-04-11 09:02:00,46.0,45.0,-100.00,NW,306,6.0,12.0,96,0.31,,,1.39,,2013-04-11 14:02:00,
2013-04-11 09:12:00,46.0,45.0,-100.00,NW,306,6.0,12.0,96,0.31,,,1.39,,2013-04-11 14:12:00,
2013-04-11 09:22:00,46.0,45.0,-100.00,NW,306,6.0,12.0,96,0.31,,,1.39,,2013-04-11 14:22:00,
2013-04-11 09:32:00,46.0,45.0,-100.00,NW,306,6.0,12.0,96,0.31,,,1.39,,2013-04-11 14:32:00,
2013-04-11 09:42:00,46.0,45.0,-100.00,NW,306,6.0,12.0,96,0.31,,,1.39,,2013-04-11 14:42:00,
2013-04-11 12:13:00,47.0,45.0,-100.00,North,1,3.0,5.0,94,-99.99,,,1.58,,2013-04-11 17:13:00,
2013-04-11 12:23:00,47.0,45.0,-100.00,North,1,3.0,5.0,94,-99.99,,,1.58,,2013-04-11 17:23:00,
2013-04-11 12:33:00,47.0,45.0,-100.00,North,1,3.0,5.0,94,-99.99,,,1.58,,2013-04-11 17:33:00,
2013-04-11 12:43:00,47.0,45.0,-100.00,North,1,3.0,5.0,94,-99.99,,,1.58,,2013-04-11 17:43:00,
2013-04-11 13:13:00,50.0,47.0,-100.00,North,3,2.0,5.0,91,0.01,,,1.59,,2013-04-11 18:13:00,
2013-04-11 13:23:00,50.0,47.0,-100.00,North,3,2.0,5.0,91,0.01,,,1.59,,2013-04-11 18:23:00,
2013-04-11 13:33:00,50.0,47.0,-100.00,North,3,2.0,5.0,91,0.01,,,1.59,,2013-04-11 18:33:00,
2013-04-11 13:42:00,50.0,47.0,-100.00,North,3,2.0,5.0,91,0.01,,,1.59,,2013-04-11 18:42:00,
2013-04-11 14:14:00,51.0,47.0,-100.00,NW,306,8.0,14.0,86,0.00,,,1.59,,2013-04-11 19:14:00,
2013-04-11 14:22:00,51.0,47.0,-100.00,NW,306,8.0,14.0,86,0.00,,,1.59,,2013-04-11 19:22:00,
2013-04-11 14:32:00,51.0,47.0,-100.00,NW,306,8.0,14.0,86,0.00,,,1.59,,2013-04-11 19:32:00,
2013-04-11 14:43:00,51.0,47.0,-100.00,NW,306,8.0,14.0,86,0.00,,,1.59,,2013-04-11 19:43:00,
2013-04-11 15:13:00,55.0,47.0,-100.00,NW,318,8.0,16.0,75,0.00,,,1.59,,2013-04-11 20:13:00,
2013-04-11 15:22:00,55.0,47.0,-100.00,NW,318,8.0,16.0,75,0.00,,,1.59,,2013-04-11 20:22:00,
2013-04-11 15:33:00,55.0,47.0,-100.00,NW,318,8.0,16.0,75,0.00,,,1.59,,2013-04-11 20:33:00,
2013-04-11 15:42:00,55.0,47.0,-100.00,NW,318,8.0,16.0,75,0.00,,,1.59,,2013-04-11 20:42:00,
2013-04-11 16:12:00,60.0,47.0,-100.00,NW,320,5.0,9.0,63,0.00,,,1.59,,2013-04-11 21:12:00,
2013-04-11 16:22:00,60.0,47.0,-100.00,NW,320,5.0,9.0,63,0.00,,,1.59,,2013-04-11 21:22:00,
2013-04-11 16:33:00,60.0,47.0,-100.00,NW,320,5.0,9.0,63,0.00,,,1.59,,2013-04-11 21:33:00,
2013-04-11 16:42:00,60.0,47.0,-100.00,NW,320,5.0,9.0,63,0.00,,,1.59,,2013-04-11 21:42:00,
2013-04-11 17:13:00,62.0,46.0,-100.00,NW,312,7.0,12.0,55,0.00,,,1.59,,2013-04-11 22:13:00,
2013-04-11 17:23:00,62.0,46.0,-100.00,NW,312,7.0,12.0,55,0.00,,,1.59,,2013-04-11 22:23:00,
2013-04-11 17:33:00,62.0,46.0,-100.00,NW,312,7.0,12.0,55,0.00,,,1.59,,2013-04-11 22:33:00,
2013-04-11 17:44:00,62.0,46.0,-100.00,NW,312,7.0,12.0,55,0.00,,,1.59,,2013-04-11 22:44:00,
2013-04-11 18:13:00,64.0,45.0,-100.00,NNW,335,4.0,9.0,51,0.00,,,1.59,,2013-04-11 23:13:00,
2013-04-11 18:23:00,64.0,45.0,-100.00,NNW,335,4.0,9.0,51,0.00,,,1.59,,2013-04-11 23:23:00,
2013-04-11 18:32:00,64.0,45.0,-100.00,NNW,335,4.0,9.0,51,0.00,,,1.59,,2013-04-11 23:32:00,
2013-04-11 18:42:00,64.0,45.0,-100.00,NNW,335,4.0,9.0,51,0.00,,,1.59,,2013-04-11 23:42:00,
2013-04-11 19:12:00,60.0,47.0,-100.00,NE,43,5.0,7.0,61,0.00,,,1.59,,2013-04-12 00:12:00,
2013-04-11 19:22:00,60.0,47.0,-100.00,NE,43,5.0,7.0,61,0.00,,,1.59,,2013-04-12 00:22:00,
2013-04-11 19:32:00,60.0,47.0,-100.00,NE,43,5.0,7.0,61,0.00,,,1.59,,2013-04-12 00:32:00,
2013-04-11 19:42:00,60.0,47.0,-100.00,NE,43,5.0,7.0,61,0.00,,,1.59,,2013-04-12 00:42:00,
2013-04-11 20:12:00,54.0,50.0,-100.00,North,360,1.0,2.0,85,0.00,,,1.59,,2013-04-12 01:12:00,
2013-04-11 20:22:00,54.0,50.0,-100.00,North,360,1.0,2.0,85,0.00,,,1.59,,2013-04-12 01:22:00,
2013-04-11 20:32:00,54.0,50.0,-100.00,North,360,1.0,2.0,85,0.00,,,1.59,,2013-04-12 01:32:00,
2013-04-11 20:42:00,54.0,50.0,-100.00,North,360,1.0,2.0,85,0.00,,,1.59,,2013-04-12 01:42:00,
2013-04-11 21:12:00,50.0,48.0,-100.00,South,190,0.0,2.0,94,0.00,,,1.59,,2013-04-12 02:12:00,
2013-04-11 21:22:00,50.0,48.0,-100.00,South,190,0.0,2.0,94,0.00,,,1.59,,2013-04-12 02:22:00,
2013-04-11 21:32:00,50.0,48.0,-100.00,South,190,0.0,2.0,94,0.00,,,1.59,,2013-04-12 02:32:00,
2013-04-11 21:42:00,50.0,48.0,-100.00,South,190,0.0,2.0,94,0.00,,,1.59,,2013-04-12 02:42:00,
2013-04-11 22:12:00,49.0,48.0,-100.00,WSW,238,0.0,0.0,96,0.00,,,1.59,,2013-04-12 03:12:00,
2013-04-11 22:22:00,49.0,48.0,-100.00,WSW,238,0.0,0.0,96,0.00,,,1.59,,2013-04-12 03:22:00,
2013-04-11 22:33:00,49.0,48.0,-100.00,WSW,238,0.0,0.0,96,0.00,,,1.59,,2013-04-12 03:33:00,
2013-04-11 22:43:00,49.0,48.0,-100.00,WSW,238,0.0,0.0,96,0.00,,,1.59,,2013-04-12 03:43:00,
2013-04-11 23:13:00,47.0,46.0,-100.00,West,275,0.0,0.0,96,0.00,,,1.59,,2013-04-12 04:13:00,
2013-04-11 23:23:00,47.0,46.0,-100.00,West,275,0.0,0.0,96,0.00,,,1.59,,2013-04-12 04:23:00,
2013-04-11 23:33:00,47.0,46.0,-100.00,West,275,0.0,0.0,96,0.00,,,1.59,,2013-04-12 04:33:00,
2013-04-11 23:43:00,47.0,46.0,-100.00,West,275,0.0,0.0,96,0.00,,,1.59,,2013-04-12 04:43:00,